Location: Mahannah Oil Field
(37.4664°N, 96.6003°W)
Time: 17:04:05
(UTC+00:00)

Vanguard 2 Rocket - Pass Details

Date: 22 June 2021
Orbit: 554 x 3325 km, 32.9° (Epoch: 24 July)

Event Time Altitude Azimuth Distance (km) Brightness Sun altitude
Rises 02:12:54 0° 254° (WSW) 7,235 12.1 -4.5°
Reaches altitude 10° 02:17:43 10° 253° (WSW) 6,276 11.7 -5.3°
Maximum altitude 02:37:57 74° 173° (S) 2,989 9.4 -8.5°
Drops below altitude 10° 02:52:01 10° 92° (E) 4,583 10.0 -10.7°
Sets 02:54:56 0° 90° (E) 5,278 10.3 -11.1°
